Change the Weather History Date:

Thursday, January 23, 2014

  Actual Average (KJLN) Record (KJLN)
Temperature  
Mean Temperature 14 °F 35 °F  
Max Temperature 23 °F 45 °F 72 °F (1967)
Min Temperature 5 °F 25 °F -7 °F (1963)
Degree Days  
Heating Degree Days 51 30  
Month to date heating degree days 690  
Since 1 July heating degree days 2307  
Cooling Degree Days 0 0  
Month to date cooling degree days 0  
Year to date cooling degree days 0  
Moisture  
Dew Point -3 °F    
Average Humidity 50    
Maximum Humidity 85    
Minimum Humidity 33    
Precipitation  
Precipitation 0.00 in 0.07 in 1.34 in (1949)
Month to date precipitation 1.52  
Year to date precipitation 1.52  
Sea Level Pressure  
Sea Level Pressure 30.69 in    
Wind  
Wind Speed 11 mph (North)    
Max Wind Speed 22 mph    
Max Gust Speed 32 mph    
Visibility 10 miles    
Events      
T = Trace of Precipitation, MM = Missing Value Source: NWS Daily Summary

Daily Weather History Graph

Daily Weather History Graph

Search for Another Location

Airport or City:

Trip Planner

Search our weather history database for the weather conditions in past years. The results will help you decide how hot, cold, wet, or windy it might be!

Date:

Astronomy

Jan. 23, 2014 Rise Set
Actual Time 7:28 AM CST 5:33 PM CST
Civil Twilight 7:00 AM CST 6:01 PM CST
Nautical Twilight 6:28 AM CST 6:33 PM CST
Astronomical Twilight 5:57 AM CST 7:04 PM CST
Moon No Moon Rise 11:13 AM CST (1/23)
Length of Visible Light 11h 00m
Length of Day
10h 04m
Waning Gibbous, 55% of the Moon is Illuminated
Jan 23
Waning Gibbous
Jan 23
Last Quarter
Jan 30
New
Feb 6
First Quarter
Feb 14
Full

Hourly Weather History & Observations

Time (CST) Temp. Windchill Dew Point Humidity Pressure Visibility Wind Dir Wind Speed Gust Speed Precip Events Conditions
12:15 AM 23.2 °F 7.8 °F 9.1 °F 55% 30.40 in 10.0 mi NNE 21.9 mph 32.2 mph N/A   Clear
12:35 AM 21.7 °F 7.5 °F 6.6 °F 52% 30.41 in 10.0 mi North 17.3 mph 25.3 mph N/A   Clear
12:55 AM 20.7 °F 7.1 °F 4.1 °F 49% 30.42 in 10.0 mi NNE 15.0 mph 23.0 mph N/A   Clear
1:15 AM 19.6 °F 6.8 °F 0.7 °F 44% 30.44 in 10.0 mi NNE 12.7 mph 25.3 mph N/A   Clear
1:35 AM 18.1 °F 3.4 °F -2.0 °F 41% 30.46 in 10.0 mi NNE 16.1 mph 24.2 mph N/A   Clear
1:55 AM 17.6 °F 5.0 °F -3.1 °F 40% 30.48 in 10.0 mi North 11.5 mph 19.6 mph N/A   Clear
2:15 AM 16.0 °F 1.7 °F -4.0 °F 41% 30.49 in 10.0 mi NNE 13.8 mph 18.4 mph N/A   Clear
2:35 AM 15.6 °F 2.5 °F -4.0 °F 42% 30.51 in 10.0 mi North 11.5 mph 23.0 mph N/A   Clear
2:55 AM 15.6 °F -0.4 °F -4.4 °F 41% 30.52 in 10.0 mi NNE 17.3 mph 24.2 mph N/A   Clear
3:15 AM 15.6 °F 2.5 °F -5.4 °F 39% 30.53 in 10.0 mi NNE 11.5 mph 18.4 mph N/A   Clear
3:35 AM 14.5 °F -0.7 °F -5.8 °F 40% 30.54 in 10.0 mi NNE 15.0 mph 21.9 mph N/A   Clear
3:55 AM 13.1 °F -2.6 °F -6.7 °F 41% 30.54 in 10.0 mi NNE 15.0 mph 23.0 mph N/A   Clear
4:15 AM 13.1 °F -1.4 °F -5.3 °F 44% 30.55 in 10.0 mi NNE 12.7 mph 23.0 mph N/A   Clear
4:35 AM 12.4 °F -3.5 °F -5.8 °F 44% 30.56 in 10.0 mi NNE 15.0 mph 20.7 mph N/A   Clear
4:55 AM 11.7 °F -5.0 °F -7.4 °F 42% 30.58 in 10.0 mi NNE 16.1 mph 24.2 mph N/A   Clear
5:15 AM 11.3 °F -3.6 °F -7.1 °F 44% 30.59 in 10.0 mi NNE 12.7 mph 19.6 mph N/A   Clear
5:35 AM 10.6 °F -3.1 °F -6.5 °F 46% 30.61 in 10.0 mi North 10.4 mph 16.1 mph N/A   Clear
5:55 AM 10.4 °F -4.8 °F -6.5 °F 47% 30.61 in 10.0 mi NNE 12.7 mph - N/A   Clear
6:15 AM 10.4 °F 0.8 °F -6.3 °F 47% 30.64 in 10.0 mi North 5.8 mph 11.5 mph N/A   Clear
6:35 AM 10.4 °F -2.4 °F -5.4 °F 49% 30.65 in 10.0 mi North 9.2 mph - N/A   Clear
6:55 AM 10.4 °F -2.4 °F -4.4 °F 51% 30.66 in 10.0 mi North 9.2 mph - N/A   Clear
7:15 AM 10.4 °F -4.1 °F -4.9 °F 50% 30.67 in 10.0 mi North 11.5 mph 17.3 mph N/A   Clear
7:35 AM 10.4 °F -2.4 °F -4.5 °F 51% 30.68 in 10.0 mi North 9.2 mph 16.1 mph N/A   Clear
7:55 AM 10.4 °F -4.1 °F -4.0 °F 52% 30.69 in 10.0 mi NNE 11.5 mph 17.3 mph N/A   Clear
8:15 AM 10.4 °F -4.1 °F -4.7 °F 51% 30.71 in 10.0 mi NNE 11.5 mph 16.1 mph N/A   Clear
8:35 AM 10.4 °F -2.4 °F -5.1 °F 50% 30.72 in 10.0 mi North 9.2 mph 16.1 mph N/A   Clear
8:55 AM 10.4 °F -3.3 °F -4.7 °F 51% 30.74 in 10.0 mi North 10.4 mph - N/A   Clear
9:15 AM 10.4 °F -0.4 °F -4.9 °F 50% 30.75 in 10.0 mi North 6.9 mph - N/A   Clear
9:35 AM 10.4 °F -4.1 °F -4.9 °F 50% 30.76 in 10.0 mi North 11.5 mph 19.6 mph N/A   Clear
9:55 AM 10.4 °F -0.4 °F -4.9 °F 50% 30.77 in 10.0 mi North 6.9 mph - N/A   Clear
10:15 AM 10.4 °F -2.4 °F -4.4 °F 51% 30.78 in 10.0 mi North 9.2 mph - N/A   Clear
10:35 AM 10.8 °F -4.3 °F -4.5 °F 50% 30.78 in 10.0 mi NNE 12.7 mph - N/A   Clear
10:55 AM 12.0 °F 0.5 °F -4.7 °F 47% 30.79 in 10.0 mi North 8.1 mph - N/A   Clear
11:15 AM 12.6 °F 1.1 °F -4.4 °F 47% 30.79 in 10.0 mi North 8.1 mph 16.1 mph N/A   Clear
11:35 AM 14.2 °F 2.2 °F -3.6 °F 45% 30.79 in 10.0 mi NNE 9.2 mph 16.1 mph N/A   Clear
11:55 AM 14.9 °F 5.0 °F -4.2 °F 43% 30.79 in 10.0 mi North 6.9 mph - N/A   Clear
12:15 PM 15.6 °F 4.9 °F -4.2 °F 41% 30.78 in 10.0 mi North 8.1 mph - N/A   Clear
12:35 PM 15.6 °F 3.2 °F -4.5 °F 41% 30.77 in 10.0 mi NNW 10.4 mph 16.1 mph N/A   Clear
12:55 PM 15.6 °F 4.0 °F -5.4 °F 39% 30.77 in 10.0 mi NNE 9.2 mph - N/A   Clear
1:15 PM 15.6 °F 4.9 °F -5.3 °F 39% 30.76 in 10.0 mi North 8.1 mph - N/A   Clear
1:35 PM 15.6 °F 7.0 °F -5.6 °F 39% 30.75 in 10.0 mi North 5.8 mph 16.1 mph N/A   Clear
1:55 PM 16.9 °F 5.5 °F -5.4 °F 37% 30.76 in 10.0 mi North 9.2 mph - N/A   Clear
2:15 PM 17.6 °F 8.2 °F -5.1 °F 37% 30.75 in 10.0 mi North 6.9 mph - N/A   Clear
2:35 PM 18.1 °F 7.9 °F -4.9 °F 36% 30.75 in 10.0 mi NNW 8.1 mph - N/A   Clear
2:55 PM 18.1 °F 10.0 °F -4.9 °F 36% 30.75 in 10.0 mi North 5.8 mph - N/A   Clear
3:15 PM 18.1 °F 8.9 °F -5.3 °F 35% 30.74 in 10.0 mi North 6.9 mph - N/A   Clear
3:35 PM 18.5 °F 8.4 °F -5.3 °F 35% 30.74 in 10.0 mi North 8.1 mph - N/A   Clear
3:55 PM 18.7 °F 9.5 °F -6.0 °F 33% 30.75 in 10.0 mi North 6.9 mph - N/A   Clear
4:15 PM 18.1 °F 7.9 °F -6.2 °F 34% 30.75 in 10.0 mi NNW 8.1 mph - N/A   Clear
4:35 PM 18.1 °F 10.0 °F -6.0 °F 34% 30.75 in 10.0 mi North 5.8 mph - N/A   Clear
4:55 PM 18.1 °F 10.0 °F -5.3 °F 35% 30.75 in 10.0 mi North 5.8 mph - N/A   Clear
5:15 PM 17.2 °F 8.9 °F -5.3 °F 37% 30.75 in 10.0 mi North 5.8 mph - N/A   Clear
5:35 PM 15.8 °F 8.6 °F -5.4 °F 39% 30.75 in 10.0 mi North 4.6 mph - N/A   Clear
5:55 PM 15.6 °F 8.3 °F -4.4 °F 41% 30.76 in 10.0 mi North 4.6 mph - N/A   Clear
6:15 PM 15.4 °F - -3.5 °F 43% 30.76 in 10.0 mi Calm Calm - N/A   Clear
6:35 PM 13.5 °F - -3.1 °F 48% 30.76 in 10.0 mi Calm Calm - N/A   Clear
6:55 PM 13.1 °F - -0.9 °F 54% 30.76 in 10.0 mi Calm Calm - N/A   Clear
7:15 PM 11.7 °F - 0.1 °F 60% 30.76 in 10.0 mi Calm Calm - N/A   Clear
7:35 PM 10.4 °F - 1.0 °F 66% 30.76 in 10.0 mi Calm Calm - N/A   Clear
7:55 PM 10.4 °F - 0.1 °F 63% 30.76 in 10.0 mi Calm Calm - N/A   Clear
8:35 PM 10.2 °F - 3.2 °F 73% 30.75 in 10.0 mi Calm Calm - N/A   Clear
8:55 PM 10.2 °F 3.8 °F 3.6 °F 74% 30.75 in 10.0 mi West 3.5 mph - N/A   Clear
9:15 PM 10.4 °F 4.0 °F 4.1 °F 76% 30.75 in 10.0 mi WSW 3.5 mph - N/A   Clear
9:55 PM 5.9 °F - 0.5 °F 78% 30.75 in 10.0 mi Calm Calm - N/A   Clear
10:15 PM 5.9 °F - 1.6 °F 82% 30.75 in 10.0 mi Calm Calm - N/A   Clear
10:35 PM 5.7 °F - 1.9 °F 84% 30.75 in 10.0 mi Calm Calm - N/A   Clear
10:55 PM 7.0 °F - 3.4 °F 85% 30.74 in 10.0 mi Calm Calm - N/A   Clear
11:15 PM 6.4 °F - 2.7 °F 84% 30.74 in 10.0 mi Calm Calm - N/A   Clear
11:35 PM 5.4 °F - 0.9 °F 82% 30.73 in 10.0 mi Calm Calm - N/A   Clear
11:55 PM 5.9 °F -1.1 °F 1.6 °F 82% 30.72 in 10.0 mi WSW 3.5 mph - N/A   Clear